Weather History for Lawton, OK

Change the Weather History Date:

Friday, August 23, 2013

  Actual Average Record
Temperature  
Mean Temperature 86 °F -  
Max Temperature 99 °F 94 °F 107 °F (2010)
Min Temperature 73 °F 68 °F 58 °F (1956)
Cooling Degree Days 21    
Growing Degree Days 36 (Base 50)    
Moisture  
Dew Point 66 °F    
Average Humidity 54    
Maximum Humidity 79    
Minimum Humidity 30    
Precipitation  
Precipitation 0.00 in - - ()
Sea Level Pressure  
Sea Level Pressure 29.96 in    
Wind  
Wind Speed 5 mph (ESE)    
Max Wind Speed 16 mph    
Max Gust Speed 21 mph    
Visibility 10 miles    
Events      
Averages and records for this station are not official NWS values.
T = Trace of Precipitation, MM = Missing Value Source: NWS Daily Summary

Daily Weather History Graph

Daily Weather History Graph

Search for Another Location

Airport:

Trip Planner

Search our weather history database for the weather conditions in past years. The results will help you decide how hot, cold, wet, or windy it might be!

Date:

Astronomy

Aug. 23, 2013 Rise Set
Actual Time 7:00 AM CDT 8:11 PM CDT
Civil Twilight 6:34 AM CDT 8:37 PM CDT
Nautical Twilight 6:03 AM CDT 9:08 PM CDT
Astronomical Twilight 5:30 AM CDT 9:40 PM CDT
Moon 9:42 PM CDT (8/23) 9:47 AM CDT (8/23)
Length of Visible Light 14h 03m
Length of Day
13h 10m
Waning Gibbous, 91% of the Moon is Illuminated
Aug 23
Waning Gibbous
Aug 28
Last Quarter
Sep 5
New
Sep 12
First Quarter
Sep 19
Full

Hourly Weather History & Observations

Time (CDT) Temp. Heat Index Dew Point Humidity Pressure Visibility Wind Dir Wind Speed Gust Speed Precip Events Conditions
12:53 AM 78.1 °F - 64.0 °F 62% 29.97 in 10.0 mi ENE 3.5 mph - N/A   Clear
1:53 AM 77.0 °F - 64.9 °F 66% 29.97 in 10.0 mi NNE 3.5 mph - N/A   Partly Cloudy
2:53 AM 77.0 °F - 64.9 °F 66% 29.97 in 10.0 mi East 3.5 mph - N/A   Mostly Cloudy
3:53 AM 75.9 °F - 66.0 °F 71% 29.97 in 10.0 mi Calm Calm - N/A   Clear
4:53 AM 75.0 °F - 64.9 °F 71% 29.97 in 10.0 mi East 3.5 mph - N/A   Clear
5:53 AM 73.0 °F - 66.0 °F 79% 29.97 in 10.0 mi ESE 4.6 mph - N/A   Clear
6:53 AM 73.9 °F - 66.0 °F 76% 29.97 in 10.0 mi Calm Calm - N/A   Clear
7:53 AM 75.0 °F - 66.9 °F 76% 29.99 in 10.0 mi East 3.5 mph - N/A   Clear
8:53 AM 80.1 °F 82.3 °F 66.9 °F 64% 30.01 in 10.0 mi SE 5.8 mph - N/A   Clear
9:53 AM 84.9 °F 88.2 °F 68.0 °F 57% 30.01 in 10.0 mi SSE 6.9 mph - N/A   Clear
10:53 AM 90.0 °F 92.8 °F 66.9 °F 46% 30.02 in 10.0 mi South 4.6 mph - N/A   Clear
11:53 AM 93.0 °F 96.4 °F 66.9 °F 42% 30.00 in 10.0 mi SE 10.4 mph - N/A   Clear
12:53 PM 95.0 °F 97.4 °F 64.9 °F 37% 29.98 in 10.0 mi South 4.6 mph - N/A   Partly Cloudy
1:53 PM 97.0 °F 98.3 °F 63.0 °F 32% 29.96 in 10.0 mi SE 9.2 mph - N/A   Clear
2:53 PM 97.0 °F 97.8 °F 62.1 °F 31% 29.94 in 10.0 mi Calm Calm - N/A   Clear
3:53 PM 99.0 °F 100.5 °F 62.1 °F 30% 29.92 in 10.0 mi ESE 9.2 mph - N/A   Clear
4:53 PM 97.0 °F 99.3 °F 64.0 °F 34% 29.90 in 10.0 mi SE 13.8 mph - N/A   Clear
5:53 PM 96.1 °F 98.3 °F 64.0 °F 35% 29.90 in 10.0 mi SE 16.1 mph 20.7 mph N/A   Clear
6:53 PM 93.0 °F 95.9 °F 66.0 °F 41% 29.90 in 10.0 mi SE 15.0 mph - N/A   Clear
7:53 PM 89.1 °F 91.3 °F 66.0 °F 46% 29.91 in 10.0 mi SE 6.9 mph - N/A   Clear
8:53 PM 86.0 °F 88.8 °F 66.9 °F 53% 29.93 in 10.0 mi East 10.4 mph - N/A   Clear
9:53 PM 84.0 °F 87.8 °F 69.1 °F 61% 29.96 in 10.0 mi ESE 8.1 mph - N/A   Clear
10:53 PM 82.9 °F 85.4 °F 66.9 °F 58% 29.97 in 10.0 mi ESE 9.2 mph - N/A   Clear
11:53 PM 80.1 °F 82.1 °F 66.0 °F 62% 29.97 in 10.0 mi ESE 3.5 mph - N/A   Clear